This is the latest recevied weather packets stored in our database for station/object WA0LM. If no packets are shown the sender has not sent any weather packets the latest 10 day(s).
| Time | Temp. | Humidity | Pressure | Rain* | Wind** | Luminosity | Snow |
|---|---|---|---|---|---|---|---|
| 1777808806 | 7.78° C | 74% | 1005.3 hPa | 0 mm | - | 25 W/m² | - |
| 1777808502 | 7.78° C | 73% | 1005.2 hPa | 0 mm | - | 22 W/m² | - |
| 1777808199 | 7.78° C | 76% | 1005.2 hPa | 0 mm | - | 20 W/m² | - |
| 1777807898 | 7.78° C | 78% | 1005.2 hPa | 0 mm | - | 17 W/m² | - |
| 1777807596 | 7.22° C | 76% | 1005.2 hPa | 0 mm | - | 14 W/m² | - |
| 1777807292 | 7.22° C | 77% | 1005.1 hPa | 0 mm | - | 12 W/m² | - |
| 1777806988 | 7.78° C | 78% | 1004.8 hPa | 0 mm | - | 9 W/m² | - |
| 1777806685 | 7.78° C | 76% | 1004.7 hPa | 0 mm | - | 6 W/m² | - |
| 1777806381 | 7.22° C | 77% | 1004.7 hPa | 0 mm | - | 4 W/m² | - |
| 1777806078 | 7.22° C | 78% | 1004.7 hPa | 0 mm | - | 3 W/m² | - |
| 1777805774 | 7.22° C | 77% | 1004.6 hPa | 0 mm | - | 1 W/m² | - |
| 1777805472 | 7.22° C | 78% | 1004.7 hPa | 0 mm | - | 1 W/m² | - |
| 1777805170 | 6.67° C | 78% | 1004.5 hPa | 0 mm | - | 0 W/m² | - |
| 1777804868 | 6.67° C | 78% | 1004.4 hPa | 0 mm | - | 0 W/m² | - |
| 1777804565 | 7.22° C | 79% | 1004.4 hPa | 0 mm | - | 0 W/m² | - |
| 1777804262 | 6.67° C | 78% | 1004.5 hPa | 0 mm | - | 0 W/m² | - |
| 1777803959 | 6.67° C | 81% | 1004.3 hPa | 0 mm | - | 0 W/m² | - |
| 1777803656 | 6.67° C | 79% | 1004.4 hPa | 0 mm | - | 0 W/m² | - |
| 1777803352 | 6.67° C | 78% | 1004.3 hPa | 0 mm | - | 0 W/m² | - |
| 1777803050 | 6.67° C | 77% | 1004.2 hPa | 0 mm | - | 0 W/m² | - |
| 1777802747 | 6.67° C | 80% | 1004.4 hPa | 0 mm | - | 0 W/m² | - |
| 1777802445 | 6.67° C | 81% | 1004.2 hPa | 0 mm | - | 0 W/m² | - |
| 1777802142 | 6.67° C | 83% | 1004.2 hPa | 0 mm | - | 0 W/m² | - |
| 1777801840 | 6.11° C | 88% | 1004 hPa | 0 mm | - | 0 W/m² | - |
| 1777801537 | 5.56° C | 91% | 1004.1 hPa | 0 mm | - | 0 W/m² | - |
* Rain latest hour (hover to see other rain measurements)
** Current wind speed in m/s (hover to see current wind gust speed)